Weather History for KMOB - November, 2012

Change the Weather History Date:

Tuesday, November 27, 2012

  Actual Average Record
Temperature  
Mean Temperature 57 °F 56 °F  
Max Temperature 65 °F 67 °F 82 °F (1973)
Min Temperature 48 °F 46 °F 27 °F (1956)
Degree Days  
Heating Degree Days 8 9  
Month to date heating degree days 226 172  
Since 1 July heating degree days 281 227  
Cooling Degree Days 0 1  
Month to date cooling degree days 15 39  
Year to date cooling degree days 2697 2501  
Growing Degree Days 6 (Base 50)    
Moisture  
Dew Point 56 °F    
Average Humidity 89    
Maximum Humidity 93    
Minimum Humidity 84    
Precipitation  
Precipitation 1.14 in 0.16 in 3.35 in (1914)
Month to date precipitation 1.43 4.62  
Year to date precipitation 65.62 60.58  
Snow  
Snow 0.00 in 0.00 in 0.00 in (2002)
Month to date snowfall 0.0 0.0  
Since 1 July snowfall 0.0 0.0  
Snow Depth 0.00 in    
Sea Level Pressure  
Sea Level Pressure 30.19 in    
Wind  
Wind Speed 6 mph (North)    
Max Wind Speed 23 mph    
Max Gust Speed 30 mph    
Visibility 7 miles    
Events Fog , Rain    
T = Trace of Precipitation, MM = Missing Value Source: NWS Daily Summary

Daily Weather History Graph

Daily Weather History Graph

Search for Another Location

Airport or City:

Trip Planner

Search our weather history database for the weather conditions in past years. The results will help you decide how hot, cold, wet, or windy it might be!

Date:

Astronomy

Nov. 27, 2012 Rise Set
Actual Time 6:29 AM CST 4:51 PM CST
Civil Twilight 6:03 AM CST 5:17 PM CST
Nautical Twilight 5:34 AM CST 5:47 PM CST
Astronomical Twilight 5:05 AM CST 6:16 PM CST
Moon 4:21 PM CST (11/27) 5:36 AM CST (11/27)
Length of Visible Light 11h 13m
Length of Day
10h 21m
Waxing Gibbous, 99% of the Moon is Illuminated
Nov 27
Waxing Gibbous
Nov 28
Full
Dec 6
Last Quarter
Dec 13
New
Dec 19
First Quarter

Hourly Weather History & Observations

Time (CST) Temp. Dew Point Humidity Pressure Visibility Wind Dir Wind Speed Gust Speed Precip Events Conditions
12:56 AM 64.0 °F 60.1 °F 87% 30.10 in 10.0 mi South 5.8 mph - N/A   Mostly Cloudy
1:56 AM 64.0 °F 61.0 °F 90% 30.11 in 10.0 mi South 5.8 mph - N/A   Mostly Cloudy
2:56 AM 63.0 °F 60.1 °F 90% 30.10 in 10.0 mi Calm Calm - N/A   Mostly Cloudy
3:56 AM 63.0 °F 60.1 °F 90% 30.08 in 10.0 mi Calm Calm - N/A   Overcast
4:56 AM 62.1 °F 60.1 °F 93% 30.10 in 10.0 mi Calm Calm - N/A   Overcast
5:56 AM 64.0 °F 62.1 °F 93% 30.08 in 10.0 mi Calm Calm - N/A   Overcast
6:56 AM 64.0 °F 62.1 °F 93% 30.11 in 10.0 mi SW 3.5 mph - N/A   Overcast
7:56 AM 64.0 °F 62.1 °F 93% 30.15 in 5.0 mi North 15.0 mph - 0.00 in Rain Light Rain
8:03 AM 62.6 °F 57.2 °F 82% 30.18 in 1.0 mi NNW 23.0 mph 29.9 mph 0.10 in Rain Heavy Rain
8:08 AM 60.8 °F 57.2 °F 88% 30.18 in 0.5 mi North 15.0 mph 29.9 mph 0.32 in Fog , Rain Heavy Rain
8:25 AM 59.0 °F 57.2 °F 94% 30.17 in 1.0 mi NNE 13.8 mph - 0.86 in Rain Heavy Rain
8:30 AM 59.0 °F 57.2 °F 94% 30.18 in 3.0 mi North 12.7 mph - 0.89 in Rain Heavy Rain
8:42 AM 59.0 °F 57.2 °F 94% 30.18 in 3.0 mi North 10.4 mph - 0.91 in Rain Rain
8:56 AM 59.0 °F 57.0 °F 93% 30.19 in 4.0 mi North 5.8 mph - 0.94 in Rain Rain
9:56 AM 60.1 °F 57.9 °F 93% 30.19 in 5.0 mi North 3.5 mph - 0.13 in Rain Light Rain
10:56 AM 60.1 °F 57.9 °F 93% 30.19 in 4.0 mi Calm Calm - 0.04 in Rain Light Rain
11:28 AM 60.8 °F 57.2 °F 88% 30.18 in 4.0 mi East 3.5 mph - 0.01 in Rain Light Rain
11:56 AM 61.0 °F 57.9 °F 90% 30.16 in 4.0 mi SE 5.8 mph - 0.02 in Rain Light Rain
12:56 PM 62.1 °F 57.9 °F 86% 30.14 in 7.0 mi East 5.8 mph - 0.01 in Rain Light Rain
1:47 PM 62.6 °F 57.2 °F 82% 30.13 in 7.0 mi East 5.8 mph - 0.00 in   Overcast
1:56 PM 63.0 °F 57.9 °F 84% 30.13 in 7.0 mi NE 3.5 mph - 0.00 in   Overcast
2:10 PM 62.6 °F 57.2 °F 82% 30.14 in 8.0 mi Calm Calm - N/A   Overcast
2:39 PM 62.6 °F 57.2 °F 82% 30.15 in 10.0 mi North 6.9 mph - N/A   Mostly Cloudy
2:56 PM 63.0 °F 57.0 °F 81% 30.15 in 10.0 mi North 4.6 mph - N/A   Overcast
3:33 PM 62.6 °F 57.2 °F 82% 30.16 in 10.0 mi NW 4.6 mph - N/A   Overcast
3:56 PM 61.0 °F 55.9 °F 83% 30.18 in 10.0 mi NNW 16.1 mph - N/A   Overcast
4:22 PM 60.8 °F 57.2 °F 88% 30.19 in 8.0 mi NNW 9.2 mph - 0.00 in Rain Light Rain
4:56 PM 59.0 °F 57.0 °F 93% 30.20 in 6.0 mi NNW 8.1 mph - 0.00 in Rain Light Rain
5:10 PM 59.0 °F 57.2 °F 94% 30.20 in 4.0 mi NNW 6.9 mph - 0.00 in Rain Light Rain
5:23 PM 57.2 °F 55.4 °F 94% 30.21 in 6.0 mi North 11.5 mph - 0.00 in Rain Light Rain
5:37 PM 57.2 °F 55.4 °F 94% 30.21 in 9.0 mi North 9.2 mph - 0.00 in   Overcast
5:56 PM 57.0 °F 54.0 °F 89% 30.22 in 10.0 mi North 8.1 mph - 0.00 in   Overcast
6:49 PM 55.4 °F 53.6 °F 94% 30.25 in 10.0 mi NNW 11.5 mph - N/A   Overcast
6:56 PM 54.0 °F 52.0 °F 93% 30.25 in 10.0 mi NNW 11.5 mph - N/A   Overcast
7:36 PM 53.6 °F 51.8 °F 94% 30.25 in 0.8 mi NNW 10.4 mph - 0.00 in Rain Light Rain
7:56 PM 52.0 °F 50.0 °F 93% 30.26 in 2.0 mi North 9.2 mph 18.4 mph 0.00 in Rain Light Rain
8:09 PM 51.8 °F 48.2 °F 88% 30.27 in 5.0 mi North 9.2 mph - 0.00 in Rain Light Rain
8:32 PM 51.8 °F 48.2 °F 88% 30.27 in 7.0 mi North 11.5 mph - 0.00 in   Overcast
8:56 PM 51.1 °F 48.0 °F 89% 30.27 in 10.0 mi North 10.4 mph - 0.00 in   Overcast
9:56 PM 50.0 °F 48.0 °F 93% 30.28 in 9.0 mi NNW 6.9 mph - N/A   Overcast
10:56 PM 48.9 °F 46.9 °F 93% 30.29 in 5.0 mi NNW 6.9 mph - N/A   Overcast
11:53 PM 48.2 °F 46.4 °F 93% 30.30 in 4.0 mi North 8.1 mph - N/A   Overcast
11:56 PM 48.0 °F 46.0 °F 93% 30.29 in 4.0 mi North 6.9 mph - N/A   Overcast